Preview of NWS' New Version of Forecast
This preview is not operational and should not be used for support decisions.

Regional Weather Roundup (RWR)

Issued by National Weather Service (NWS)

                            
000
ASUS42 KTBW 172317
RWRFL 
FLORIDA REGIONAL WEATHER ROUNDUP
NATIONAL WEATHER SERVICE TAMPA BAY RUSKIN FL
700 PM EDT FRI MAY 17 2019

NOTE: "FAIR" INDICATES FEW OR NO CLOUDS BELOW 12,000 FEET WITH NO
SIGNIFICANT WEATHER AND/OR OBSTRUCTIONS TO VISIBILITY.

FLZ001>010-012>015-112-114-115-180000-
PANHANDLE FLORIDA
  
CITY           SKY/WX    TMP DP  RH WIND       PRES   REMARKS
PENSACOLA      FAIR      81  67  62 S10       29.97F                  
PENSACOLA NAS  FAIR      80  69  69 VRB6      29.97F                  
MILTON NAS     FAIR      81  65  58 S12       29.97F                  
CRESTVIEW      FAIR      84  61  45 S8        29.98F                  
DUKE FIELD     FAIR      83  63  50 S9        29.97S                  
VALPARAISO     FAIR      80  67  63 S9        29.98S                  
MARY ESTHER    SUNNY     80  67  66 S5        29.97S                  
PANAMA CITY    FAIR      82  65  56 S9        29.98S                  
APALACHICOLA   FAIR      81  70  69 SW10      29.99S                  

STATION/POSITION SKY/WX   TEMP    WIND        PRES    WAVE   SWELL
                          AIR SEA DIR/SP/G            HT/PER HT/PER
                          (F)     (DEG/KT/KT) (MB)    (FT/S) (FT/S)
30.1N   87.6W                                   N/A     1/ 8
29.2N   88.2W                     110/ 14/ 16 1015.2S   3/ 4
PANAMA CITY BEAC           78 80  210/  6/  7 1015.8F
TOWER C          NOT AVBL

$$
FLZ011-016>038-118-127-128-134-139-239-180000-
NORTH FLORIDA
  
CITY           SKY/WX    TMP DP  RH WIND       PRES   REMARKS
MARIANNA       PTSUNNY   87  63  44 SW14G21   29.95R                  
TALLAHASSEE    PTSUNNY   80  72  76 S6        29.97F                  
PERRY          FAIR      82  69  63 SW7       29.99F                  
LIVE OAK       SUNNY     82  66  57 SW8       29.97S                  
CROSS CITY     FAIR      83  66  55 W8        29.99S                  
GAINESVILLE    FAIR      87  58  37 S7        30.00R                  
WILLISTON      FAIR      84  65  52 SW9       29.98S                  
PALATKA        FAIR      86  59  39 SE12      29.99R                  
MAYPORT NAS      N/A    N/A N/A N/A MISG      29.99R                  
JACKSONVILLE   FAIR      84  59  42 SE12      29.97R                  
JAX NAS        FAIR      87  60  40 SE16      29.98S                  
JAX CECIL      MOSUNNY   88  57  35 SE12      29.97S                  
FERNANDINA BEA FAIR      80  68  65 S16G24    29.99S                  
ST AUGUSTINE   FAIR      80  64  58 S14       30.01S                  
PALM COAST     SUNNY     81  61  50 SE12      30.00S                  

STATION/POSITION SKY/WX   TEMP    WIND        PRES    WAVE   SWELL
                          AIR SEA DIR/SP/G            HT/PER HT/PER
                          (F)     (DEG/KT/KT) (MB)    (FT/S) (FT/S)
SHELL POINT      NOT AVBL
KEATON BEACH               78     230/  8/  9 1015.7F
CEDAR KEY                  81     300/  5/  9 1015.5S
FERNANDINA                 83 79  150/ 11/ 15 1016.0R
30.7N   81.3W                 78                N/A     3/ 4   2/13
MAYPORT                    80 79  170/ 10/ 17 1015.7R
31.4N   80.9W              77 76  180/ 16/ 19 1014.6F   3/ 4   2/15
ST AUGUSTINE               78 81  150/ 17/ 18 1016.1R

$$
FLZ040-043>046-052-053-057-058-063-144-180000-
INTERIOR CENTRAL FLORIDA
  
CITY           SKY/WX    TMP DP  RH WIND       PRES   REMARKS
OCALA          FAIR      86  61  42 SE5       29.99R                  
LEESBURG       FAIR      84  57  39 E10       30.00R                  
SANFORD        FAIR      83  56  39 E12       30.01R                  
ORLANDO EXEC   FAIR      83  54  36 SE13      30.01R                  
ORLANDO INTL   FAIR      82  55  39 E12       30.01R                  
KISSIMMEE      FAIR      83  57  41 E10       30.01R                  
WINTER HAVEN   FAIR      86  54  33 E9        30.00S                  
LAKELAND       SUNNY     84  55  37 E12       29.99S                  
BARTOW         FAIR      84  55  37 E9        29.98S                  
SEBRING        FAIR      83  60  44 E12       30.00S                  
OKEECHOBEE     FAIR      79  59  50 E7        30.00R                  

$$
FLZ041-047-054-059-064-141-147-180000-
EAST CENTRAL FLORIDA
  
CITY           SKY/WX    TMP DP  RH WIND       PRES   REMARKS
ORMOND BEACH   SUNNY     81  64  57 SE8       30.01S                  
DAYTONA BEACH  FAIR      80  62  54 VRB6      30.01S                  
DELAND         FAIR      82  57  42 E12       30.00S                  
NEW SMYRNA BEA SUNNY     81  63  54 SE12      30.03R                  
TITUSVILLE     SUNNY     82  63  51 SE7       30.02R                  
CAPE CANAVERAL FAIR      78  55  43 SE10      30.01R                  
MELBOURNE      FAIR      80  63  55 E10       30.01S                  
VERO BEACH     FAIR      79  63  57 E7        30.01S                  
FT PIERCE      FAIR      78  62  57 E10       30.01S                  
STUART         SUNNY     79  61  53 E9        30.02S                  

STATION/POSITION SKY/WX   TEMP    WIND        PRES    WAVE   SWELL
                          AIR SEA DIR/SP/G            HT/PER HT/PER
                          (F)     (DEG/KT/KT) (MB)    (FT/S) (FT/S)
28.5N   80.2W              78     110/  8/ 10 1016.9R   2/14   2/14
28.9N   78.5W              76 79  110/  4/  6 1017.3
TRIDENT PIER               78 81  120/  5/  8 1017.8R
28.4N   80.5W                 79                N/A     2/15   2/15
27.5N   80.2W                 79                N/A     3/10   2/15

$$
FLZ050-056-061-142-242-148-248-149-249-151-251-155-255-
160-260-180000-
WEST CENTRAL FLORIDA
  
CITY           SKY/WX    TMP DP  RH WIND       PRES   REMARKS
CRYSTAL RIVER  FAIR      82  64  54 W7        29.99R                  
INVERNESS      FAIR      84  63  48 E5        29.99R                  
BROOKSVILLE    FAIR      86  62  44 CALM      29.98S                  
CLEARWATER AIR FAIR      82  63  51 N7        29.97S                  
ST PETE CLEARW FAIR      86  59  39 E6        29.97S                  
TAMPA INTL     PTSUNNY   87  60  40 CALM      29.97F                  
TAMPA EXEC     FAIR      86  59  39 E6        29.98S                  
PLANT CITY     FAIR      86  55  35 E7        30.00S                  
MACDILL AFB    FAIR      85  57  37 E7        29.97S                  
PETER O KNIGHT CLOUDY    88  59  37 SE8       29.97S                  
ST PETERSBURG  FAIR      84  63  49 E6        29.95S                  
SARASOTA       FAIR      87  56  34 E9        29.94F                  
VENICE         FAIR      88  54  31 E10       29.97S                  

STATION/POSITION SKY/WX   TEMP    WIND        PRES    WAVE   SWELL
                          AIR SEA DIR/SP/G            HT/PER HT/PER
                          (F)     (DEG/KT/KT) (MB)    (FT/S) (FT/S)
27.3N   84.2W                 78                N/A     3/ 6
CLEARWATER BEACH           82 83  310/  6/  8 1015.2R
MIDDLE TAMPA BAY           85     110/ 10/ 12 1015.0F
VENICE                     86 81   60/  9/ 11 1014.5F

$$
FLZ066-069-070-075>078-162-262-165-265-180000-
SOUTHWEST FLORIDA AND KEYS
  
CITY           SKY/WX    TMP DP  RH WIND       PRES   REMARKS
PUNTA GORDA    FAIR      85  59  41 E10       29.98S                  
FT MYERS       FAIR      85  58  39 E8        29.96R                  
SOUTHWEST INTL FAIR      86  61  42 E10       29.96S                  
NAPLES         FAIR      86  61  42 E13       29.95R                  
MARCO ISLAND   PTSUNNY   85  66  53 E8        29.97                   
IMMOKALEE      FAIR      84  64  51 E9G16     29.96R                  
MARATHON       FAIR      85  71  63 E10       29.96R                  
KEY WEST NAS   PTSUNNY   85  69  58 E13       29.96R                  
KEY WEST INTL  FAIR      83  70  64 E13       29.96R                  

STATION/POSITION SKY/WX   TEMP    WIND        PRES    WAVE   SWELL
                          AIR SEA DIR/SP/G            HT/PER HT/PER
                          (F)     (DEG/KT/KT) (MB)    (FT/S) (FT/S)
NAPLES                     87 83              1014.3R
DRY TORTUGAS               82      80/ 14/ 16 1014.2S
SAND KEY                   81                 1014.3R
SOMBRERO KEY               81                 1014.0R

$$
FLZ067-068-071>074-168-172>174-180000-
SOUTHEAST FLORIDA 
  
CITY           SKY/WX    TMP DP  RH WIND       PRES   REMARKS
W PALM BEACH   FAIR      80  61  52 E13       30.00S                  
BOCA RATON     SUNNY     81  63  54 E14G21    29.99S                  
FT LAUDER-EXEC FAIR      80  62  54 NE12      29.98S                  
FT LAUDERDALE  FAIR      79  63  57 NE13      29.98R                  
POMPANO BEACH  FAIR      80  62  54 E13       29.99S                  
PEMBROKE PINES FAIR      79  64  60 NE13      30.00R                  
OPA LOCKA      FAIR      81  64  56 E14       30.00R                  
MIAMI          FAIR      81  64  56 E13       29.99R                  
WEST KENDALL   FAIR      81  66  60 E15       29.98R                  
HOMESTEAD      NOT AVBL                                               

STATION/POSITION SKY/WX   TEMP    WIND        PRES    WAVE   SWELL
                          AIR SEA DIR/SP/G            HT/PER HT/PER
                          (F)     (DEG/KT/KT) (MB)    (FT/S) (FT/S)
PORT EVERGLADES            79      50/ 13/ 16 1015.3S
VIRGINIA KEY               80 84   40/ 10/ 14 1015.0R
LAKE WORTH                 78 82              1016.9S
SETTLEMENT POINT           78      60/ 12/ 14 1016.1R

$$